Wind_Speed
19 18 17 16 15 15 14 14 14 13 12 12 12 12 11 11 10 10 10 9 8 8 8 8 8 9 9 10 10 11 12 13 12 12 10 9 8 9 11 12 13 13 14 15 16 17 17 16 16 16 17 17 16 15 15 15 16 17 17 17 16 16 15 15 16 16 16 16 16
19 18 17 16 16 15 14 14 13 12 11 11 11 11 11 11 10 10 9 8 7 7 7 8 8 8 8 8 8 9 9 10 10 11 10 10 9 10 11 12 13 13 13 14 16 17 17 17 17 17 16 15 14 13 12 13 14 16 17 17 17 17 17 17 16 16 17 17 16
18 17 17 17 17 16 15 14 12 10 10 10 11 11 11 11 10 9 8 7 7 7 6 6 6 6 6 5 5 6 7 9 9 10 10 10 10 10 11 12 12 13 13 14 15 16 17 17 17 17 16 14 13 13 13 13 14 15 16 16 17 17 17 17 16 16 16 16 16
17 17 17 17 18 17 16 14 11 9 10 11 12 12 12 10 9 8 7 6 6 5 4 3 3 4 4 4 5 6 7 8 9 9 9 10 10 11 11 12 13 13 14 14 14 15 16 16 16 16 15 15 14 14 14 14 14 15 15 15 16 15 15 16 16 16 16 16 15
15 15 15 15 14 13 12 11 9 9 10 11 12 12 11 10 8 7 6 6 4 3 2 2 3 4 4 4 5 6 7 8 8 9 10 10 11 11 12 12 13 14 14 15 15 15 15 16 16 16 16 16 15 15 15 15 15 15 15 15 15 15 15 15 15 15 15 15 15
9 9 9 9 9 9 9 9 9 9 10 10 11 11 11 9 8 7 6 5 4 3 2 3 3 4 4 4 5 6 7 7 8 9 10 11 11 12 13 13 14 14 15 15 16 16 16 16 16 17 17 17 16 16 16 16 16 15 15 15 15 15 16 16 15 14 14 14 14
7 7 7 8 8 9 10 11 11 11 11 10 10 10 10 9 8 7 6 5 3 2 2 3 3 3 4 5 5 6 7 7 8 9 11 11 12 12 13 14 15 15 16 16 17 17 17 17 17 17 17 17 17 17 17 16 16 15 16 16 16 16 16 16 15 15 15 15 15
9 9 9 10 11 12 12 13 13 12 12 11 10 10 9 9 8 7 5 3 2 1 2 2 3 4 4 4 5 5 6 7 8 10 11 12 12 13 13 14 15 16 17 17 18 19 19 19 18 18 17 17 17 17 17 16 16 16 16 17 16 16 16 16 16 16 16 16 16
12 11 11 12 12 13 13 14 13 13 12 11 10 10 10 9 8 6 5 3 2 2 2 3 3 4 4 4 5 5 6 7 9 10 11 12 12 13 13 14 15 16 17 18 19 19 20 19 19 18 18 18 18 18 17 17 17 17 17 17 17 16 16 16 16 16 16 16 17
15 14 13 13 13 13 14 14 13 12 12 12 11 10 9 8 7 6 5 4 3 3 3 3 3 3 4 4 5 5 6 8 9 10 10 11 11 12 13 13 14 15 16 17 18 19 19 19 19 19 19 19 19 19 19 18 18 19 18 18 18 18 17 17 16 16 16 16 16
18 17 16 16 15 14 14 13 13 12 12 12 11 10 9 8 8 7 6 5 5 5 5 4 3 3 4 4 4 5 6 7 9 9 10 10 11 11 12 13 14 15 16 16 17 17 18 18 19 20 20 20 20 20 20 20 20 21 21 20 19 19 19 18 17 16 16 16 16
19 18 18 17 16 15 14 14 13 13 12 12 11 11 10 10 9 8 7 6 6 6 6 5 4 4 4 4 5 6 7 7 8 9 9 10 10 11 12 13 14 15 16 16 16 17 17 18 19 21 21 21 21 21 21 21 22 23 23 21 21 20 20 18 17 17 16 16 16
19 19 19 18 17 16 15 15 15 14 14 13 13 12 12 11 10 9 8 8 8 8 7 6 5 5 5 6 6 7 8 8 9 10 10 11 11 12 13 14 15 16 17 17 17 18 19 19 20 21 22 23 22 22 22 22 23 23 23 22 21 20 19 18 17 17 17 17 17
18 18 18 18 17 17 17 17 16 16 15 15 14 13 13 13 12 11 10 10 9 9 9 8 7 7 7 8 8 9 9 10 10 11 12 13 13 14 14 15 16 17 18 18 19 20 20 21 21 22 23 23 23 22 22 22 23 23 23 22 21 20 19 18 17 17 17 17 17
18 18 17 17 18 18 18 18 18 17 16 16 15 14 14 14 13 12 12 11 11 11 10 10 10 10 10 10 11 11 11 12 12 13 13 14 14 14 15 16 17 17 18 19 20 21 21 22 22 22 23 23 23 23 23 23 23 23 23 22 21 20 19 18 17 17 17 17 18
18 18 17 17 17 18 19 19 18 18 17 17 16 15 15 15 14 13 13 13 13 12 12 12 13 13 12 12 12 13 13 14 14 14 15 15 15 15 15 16 17 18 19 20 21 21 22 22 23 23 23 23 22 22 23 23 23 23 22 22 21 20 20 18 17 17 17 17 17
18 18 17 17 17 17 18 18 18 18 17 17 16 16 16 15 15 14 14 14 14 14 14 14 14 14 14 14 13 14 14 15 15 16 16 16 15 15 15 16 17 18 19 20 21 21 21 22 22 22 22 21 21 21 21 21 21 21 21 20 20 19 18 17 16 15 15 15 16
18 17 17 17 17 17 17 17 17 17 17 17 17 16 16 16 15 15 15 15 15 15 15 15 15 14 15 15 14 14 15 16 16 17 17 17 16 15 15 16 17 18 19 20 20 20 20 19 19 19 19 19 18 18 18 18 18 18 18 17 16 16 15 14 13 12 11 12 13
17 17 16 17 16 16 16 16 16 17 17 17 17 16 16 16 15 16 16 16 15 15 16 15 15 15 15 15 15 16 16 17 18 18 18 18 17 16 15 16 17 18 18 19 19 18 18 17 17 17 17 17 17 16 16 17 17 17 17 16 16 15 14 13 12 12 11 11 11
16 16 16 16 16 16 16 16 16 16 16 16 17 17 16 16 16 16 16 16 16 16 16 16 16 16 16 16 17 17 18 18 19 20 19 19 17 16 15 15 16 17 18 18 18 18 17 17 17 17 17 17 17 17 17 18 19 19 19 18 17 17 16 15 15 14 14 13 13
16 16 16 16 16 16 16 16 16 16 16 17 17 17 17 17 17 17 17 17 17 17 17 17 17 17 17 17 17 17 17 18 19 20 20 19 17 15 14 14 15 16 17 18 18 18 17 17 18 18 18 18 17 17 18 19 20 20 20 20 19 18 17 16 16 15 15 14 14
16 16 16 15 15 15 15 15 15 16 16 17 17 17 18 18 18 18 19 18 19 19 19 19 19 18 18 18 17 17 17 17 18 19 19 18 17 16 15 15 16 17 17 18 18 18 18 18 18 18 18 18 18 18 18 19 20 20 20 19 18 17 16 14 14 13 13 13 13
15 15 15 15 15 15 15 15 16 16 17 17 18 18 19 19 20 20 20 20 20 20 20 20 20 19 19 18 18 17 18 18 19 19 19 19 18 18 17 17 17 17 18 18 18 18 18 18 18 18 18 18 18 18 18 19 20 20 20 19 18 16 15 13 12 12 11 11 11
15 15 15 15 15 15 16 16 16 17 18 18 19 19 20 20 20 20 21 21 21 21 21 21 21 21 20 19 19 19 19 19 20 19 19 19 19 19 18 17 17 17 17 17 17 17 18 18 18 18 18 18 18 18 18 19 19 19 19 19 18 17 16 15 14 13 13 13 13
16 16 16 16 16 16 17 17 18 18 18 19 19 20 20 20 21 21 21 21 21 21 22 21 21 21 20 20 19 19 20 20 20 19 19 19 19 19 19 18 17 16 15 14 14 15 16 17 18 18 18 18 18 18 18 18 18 18 18 18 17 17 16 16 15 15 15 15 15
17 17 17 17 18 18 18 18 18 19 19 19 20 20 20 21 21 21 21 22 21 21 21 21 20 19 19 19 19 19 19 19 19 19 19 19 19 19 19 19 18 16 15 14 14 14 15 16 17 18 18 19 19 18 18 18 17 17 16 16 16 16 15 15 14 14 15 15 15
19 19 18 18 19 19 19 19 19 19 20 20 20 20 20 20 21 21 21 21 20 20 19 19 18 17 17 18 18 18 18 18 18 18 19 19 19 20 20 19 18 16 15 14 14 15 15 16 16 17 18 19 19 18 18 17 16 16 15 15 15 14 14 14 13 13 13 13 13
19 19 19 19 20 19 19 19 20 20 20 20 20 20 20 20 20 20 20 19 19 18 18 17 17 17 17 17 18 18 18 18 18 19 20 20 20 20 20 19 18 16 14 14 14 15 15 15 16 16 17 18 17 17 16 16 15 15 15 14 14 14 14 13 12 12 11 11 11
20 20 20 20 20 20 20 20 20 20 19 19 19 19 19 19 19 19 19 18 18 17 17 17 17 17 18 18 18 18 19 19 19 20 20 20 20 20 20 19 18 16 14 14 14 15 15 15 15 15 15 15 15 15 15 14 14 14 14 14 14 13 13 13 12 12 11 10 10
20 20 20 20 20 20 20 20 19 19 19 19 19 19 19 19 19 18 18 18 17 17 16 16 17 17 18 18 19 19 19 19 19 20 20 20 20 20 20 19 17 16 14 14 14 14 14 14 14 14 14 14 14 14 14 14 14 13 13 13 13 13 12 12 12 12 11 10 10
20 20 20 20 20 20 19 19 19 18 18 18 18 18 18 18 18 17 16 16 16 16 16 17 17 17 18 18 19 19 19 19 19 19 20 20 20 20 19 18 17 15 14 13 13 13 13 14 14 14 14 13 13 13 13 13 13 13 12 12 12 12 12 12 12 11 11 11 10
19 19 20 20 20 19 19 18 18 18 18 18 18 18 17 17 16 15 15 15 16 16 17 18 18 18 18 18 19 19 19 19 19 19 19 19 19 19 18 17 16 15 13 12 12 12 13 13 13 13 13 13 12 12 11 11 11 11 11 11 11 11 11 12 11 11 11 10 10
18 19 19 19 19 19 18 18 18 18 18 18 18 17 17 16 15 15 14 15 16 17 18 18 19 19 18 19 19 19 19 19 18 18 18 18 18 18 17 16 15 13 12 11 11 12 12 12 13 13 13 13 12 11 11 10 10 10 10 10 11 11 11 11 11 11 10 10 10
17 18 18 18 18 18 18 18 18 18 18 18 18 17 17 16 16 15 15 15 16 17 18 19 18 18 17 18 18 19 19 18 17 17 17 16 17 17 17 16 14 12 11 11 11 11 11 11 12 12 12 12 11 11 11 10 10 10 10 10 11 11 10 10 10 10 10 9 9
16 16 16 16 16 16 17 17 17 18 18 18 17 17 16 16 16 15 15 15 16 17 17 17 17 16 16 17 18 19 19 18 17 17 16 16 17 17 17 15 14 12 12 11 11 11 11 11 11 11 11 11 11 11 11 10 10 10 10 10 10 10 9 8 8 9 9 9 9
15 15 15 15 14 14 15 15 16 16 17 17 17 16 16 15 15 15 15 15 16 16 16 15 15 15 16 18 19 19 19 18 17 16 16 16 16 16 16 15 14 13 12 12 11 11 10 10 10 10 10 10 10 10 10 10 10 10 10 10 9 8 7 7 7 7 7 7 8
15 15 15 14 14 13 13 13 13 14 14 14 14 14 14 13 13 13 14 14 15 14 14 14 14 16 18 19 19 18 17 16 16 16 15 15 15 15 15 14 13 13 12 12 12 11 11 10 10 10 10 10 10 10 10 10 10 10 10 9 9 8 7 7 6 6 6 6 5
14 15 15 14 13 13 12 12 12 12 12 12 12 11 11 11 11 11 12 13 14 14 14 14 15 17 18 18 18 17 15 15 15 15 15 15 15 15 15 14 13 13 12 12 12 12 11 11 10 10 10 10 10 10 10 9 9 9 9 9 9 8 8 8 8 8 7 6 5
12 13 13 14 13 12 12 11 11 10 10 10 10 10 10 10 10 10 11 12 14 15 15 16 17 17 17 17 16 15 14 14 14 15 16 16 15 15 14 14 13 13 12 12 12 12 12 11 11 10 10 9 9 9 10 10 9 9 9 8 8 8 8 8 8 8 8 8 7
11 11 11 11 12 11 11 11 10 10 9 9 10 10 10 10 9 10 10 12 13 15 16 16 17 17 17 17 17 16 16 15 15 15 15 15 14 14 14 13 13 13 13 13 13 12 12 12 11 11 10 9 9 9 9 10 10 10 9 8 8 7 7 7 7 7 7 7 7
11 11 10 10 10 10 10 11 10 9 9 9 9 9 9 9 10 11 12 13 13 14 15 16 17 18 18 18 18 18 17 16 16 15 14 14 13 13 13 12 13 13 13 13 13 13 12 12 12 11 10 9 9 9 9 9 10 10 9 8 7 6 6 6 5 5 5 5 5
Wind_Direction
226 231 231 226 220 217 215 213 211 207 200 191 185 183 182 178 176 180 183 181 175 170 169 172 173 177 184 193 200 207 213 218 220 222 226 230 225 218 217 220 222 221 215 206 204 206 208 209 210 211 211 211 206 199 193 190 185 183 182 182 180 180 180 177 173 170 168 166 165
221 225 225 222 217 215 213 211 209 203 194 183 175 171 168 166 167 172 174 171 168 171 177 183 188 192 196 201 208 216 223 230 234 238 243 246 239 229 222 220 218 216 211 202 198 198 201 203 205 204 201 197 192 186 181 179 176 171 166 162 160 159 159 157 157 158 159 159 158
218 220 221 219 215 213 210 207 200 187 173 163 158 154 153 154 158 160 162 165 177 186 192 195 204 208 210 214 221 228 233 238 243 248 252 251 243 233 224 217 214 211 208 202 198 195 195 197 197 194 188 183 180 175 170 169 170 165 158 152 150 149 146 144 144 147 149 149 149
218 221 223 220 216 214 211 206 196 176 157 152 151 149 147 147 150 154 163 178 187 190 191 204 228 236 236 235 235 236 235 237 241 246 246 243 235 228 221 215 210 206 203 202 199 197 196 194 191 186 180 175 172 167 162 160 162 159 154 150 150 149 145 141 139 139 139 139 141
225 224 223 219 215 211 206 196 184 168 155 152 151 149 148 150 155 165 176 182 176 161 161 217 248 254 252 246 240 236 234 233 236 238 236 230 224 220 216 212 205 200 198 197 197 197 196 194 188 180 174 170 165 160 157 158 158 155 151 148 148 148 146 141 137 136 135 135 135
217 209 205 203 202 197 187 175 167 160 154 152 149 149 152 158 165 170 169 160 147 147 183 232 248 253 249 239 232 231 231 231 230 228 223 217 214 211 209 205 201 195 191 188 189 190 190 188 182 175 170 166 161 157 157 158 157 153 146 141 140 142 142 137 135 133 132 130 130
160 156 159 165 169 167 160 155 155 154 153 153 152 152 156 162 164 161 154 147 144 169 225 241 236 228 223 221 222 225 228 228 225 219 212 206 203 201 199 197 194 189 184 181 179 179 180 180 174 168 164 162 158 156 157 158 157 152 143 135 133 133 133 131 133 132 129 127 126
145 145 146 151 157 157 154 153 155 155 154 153 152 153 154 155 151 147 145 148 156 188 224 223 213 208 210 215 218 223 224 221 215 207 200 195 192 190 189 187 185 181 178 175 174 172 172 172 168 162 158 157 155 154 157 160 158 151 141 132 128 127 127 127 129 130 129 128 126
128 132 137 142 146 147 148 150 152 151 147 144 144 144 143 140 139 140 144 145 151 166 192 202 205 209 215 219 220 219 215 211 204 198 192 187 182 180 179 178 176 174 172 170 169 168 167 166 162 158 154 152 149 150 153 156 154 147 139 130 125 123 122 122 124 126 128 128 125
113 118 124 130 135 139 143 144 144 141 137 133 133 133 132 131 132 135 138 142 152 165 176 188 202 214 220 221 216 210 204 199 195 190 185 180 175 171 169 168 167 166 164 164 164 164 162 159 154 151 149 148 145 144 145 149 147 140 133 127 123 120 118 117 119 120 122 123 121
105 109 114 118 125 132 137 134 131 127 125 123 124 125 126 128 130 134 140 149 157 160 165 177 192 205 210 210 204 199 192 188 185 183 178 173 168 164 160 158 158 157 155 156 157 157 155 151 146 143 141 140 138 137 137 139 138 132 126 122 120 117 114 112 112 111 111 112 112
99 103 108 113 119 125 128 125 121 118 118 119 120 122 124 127 131 138 145 152 155 155 158 163 173 183 192 193 188 182 176 172 171 169 166 161 156 152 150 148 147 146 145 144 147 147 146 142 139 136 133 132 131 129 128 129 128 123 119 117 116 112 109 107 107 107 106 106 104
96 100 104 109 114 119 120 118 116 115 116 117 118 121 123 127 133 140 145 149 151 150 149 151 157 165 169 170 169 165 161 158 157 155 150 145 143 141 139 137 136 135 134 133 135 137 137 135 134 131 128 126 124 123 122 122 120 117 115 113 111 108 107 107 108 110 110 108 104
94 97 101 106 111 113 114 114 113 114 114 115 116 119 123 127 132 138 142 143 142 141 141 143 145 146 145 148 149 149 147 147 147 144 139 135 134 132 130 129 129 128 126 126 128 130 130 130 130 129 126 123 121 121 121 120 117 115 112 110 108 106 107 109 112 114 114 112 107
87 91 97 103 106 108 109 110 110 111 113 113 115 119 122 124 128 133 137 136 135 135 137 137 135 133 133 134 135 136 137 137 137 134 131 128 126 125 124 124 124 124 122 122 123 125 126 126 126 126 124 121 120 120 120 119 117 115 112 110 109 108 109 110 113 114 115 113 110
80 84 89 95 99 102 104 106 108 109 111 112 115 118 119 120 123 127 128 128 129 130 130 128 127 126 126 126 127 127 128 127 127 125 122 119 116 116 116 118 118 119 118 118 119 120 121 122 123 122 121 119 118 118 118 118 117 115 113 112 111 111 111 111 112 112 112 112 109
76 78 82 87 91 94 98 101 104 106 108 111 114 116 116 118 120 121 122 122 123 123 121 120 121 121 121 120 121 121 121 120 119 117 115 112 109 107 108 110 112 113 114 114 114 114 114 116 118 119 118 116 115 115 116 116 116 115 114 113 113 112 112 112 113 112 112 111 110
74 76 79 82 85 88 92 97 100 104 106 109 111 113 116 118 120 120 120 121 121 119 117 116 117 117 116 114 114 115 115 114 113 112 110 108 105 103 102 104 106 108 110 110 110 110 110 111 112 114 113 112 112 113 113 114 113 113 113 112 112 112 112 112 113 114 115 115 115
73 75 77 80 83 86 90 94 98 102 105 107 110 112 115 118 120 121 120 119 120 119 117 115 114 113 112 110 109 109 109 109 108 106 105 103 100 97 96 98 101 103 105 105 105 106 107 107 108 108 108 107 108 109 109 109 108 107 107 106 107 107 109 110 112 113 115 118 122
74 75 77 80 84 87 90 93 97 100 103 106 109 111 113 115 118 118 116 115 116 117 116 114 112 110 108 107 105 103 103 103 102 100 99 97 93 90 88 90 93 95 97 98 99 100 101 102 103 103 104 104 106 107 107 107 106 105 105 105 106 107 110 112 114 116 118 121 123
75 77 80 83 86 88 91 93 97 100 102 105 107 108 110 112 113 113 113 113 114 114 113 111 109 107 106 104 102 99 98 98 98 96 95 94 91 88 86 87 88 90 91 93 94 96 98 100 100 102 103 105 106 107 107 107 107 107 107 108 109 110 113 115 118 120 122 123 123
76 80 83 85 88 90 93 95 98 100 101 103 105 106 108 108 109 109 111 113 113 111 108 106 105 103 102 101 99 98 96 96 96 96 96 96 95 94 93 92 92 92 93 94 96 97 98 99 100 102 104 105 106 107 107 107 107 107 108 109 110 111 112 114 117 120 122 123 122
77 81 84 87 90 93 95 98 100 101 101 102 103 105 105 106 106 108 109 110 109 107 105 103 102 101 100 100 99 97 96 96 95 96 98 99 99 98 97 95 94 94 96 98 99 100 100 100 100 101 102 103 103 104 104 105 105 105 105 105 105 105 105 105 107 110 113 115 115
78 81 84 88 91 94 96 99 101 101 101 101 102 103 104 104 105 106 107 106 105 104 102 101 100 100 100 99 98 97 96 95 95 96 97 99 99 98 96 93 90 89 92 96 100 102 102 101 100 100 100 100 99 99 99 99 100 100 100 99 99 98 97 95 96 97 99 100 102
80 82 85 87 89 92 95 97 98 99 100 101 102 102 103 103 104 104 104 103 102 101 101 100 99 99 99 98 98 97 96 95 95 95 95 96 96 95 92 88 84 82 84 89 95 99 101 102 101 101 100 99 98 97 95 94 94 94 95 95 95 94 92 91 89 89 89 90 91
83 84 85 86 89 90 92 93 95 97 99 101 102 102 101 102 102 102 102 101 101 100 100 100 99 98 98 98 97 96 95 93 93 94 93 92 92 91 89 85 82 80 81 85 91 95 98 101 102 103 103 102 100 98 96 95 94 94 94 94 93 93 91 89 87 85 84 84 85
82 82 84 86 88 88 89 91 94 97 98 100 100 100 100 101 102 102 102 101 101 101 101 100 100 100 100 99 98 96 94 93 93 92 92 91 89 88 86 84 83 81 82 85 89 92 95 98 100 102 103 101 100 98 98 98 98 98 97 96 95 94 93 91 89 88 86 85 85
80 81 83 85 85 85 88 91 93 94 96 97 98 99 100 101 101 101 102 103 104 104 103 102 103 104 103 102 99 98 96 96 95 93 92 91 89 88 86 85 84 83 83 84 86 87 90 92 94 97 99 99 98 97 97 98 99 99 99 98 96 95 94 94 93 93 92 92 90
79 80 81 82 82 83 86 88 89 91 94 96 98 99 100 99 99 99 100 101 102 102 102 103 105 106 105 104 102 100 99 98 97 96 94 92 90 89 87 86 84 82 81 81 82 83 85 86 88 90 93 97 98 98 98 98 98 97 97 96 95 95 95 94 95 96 97 97 96
78 79 80 80 80 81 83 85 88 91 94 97 98 99 98 97 97 97 97 98 98 99 101 104 106 107 107 106 104 102 101 100 99 98 96 94 91 89 88 86 83 80 77 77 78 80 82 84 85 87 90 94 99 99 98 98 97 96 94 94 95 95 95 94 93 94 95 98 99
79 79 79 79 79 80 82 85 89 93 96 98 98 98 96 94 93 93 95 96 98 100 102 104 106 107 108 107 105 104 103 102 101 99 97 95 93 90 88 85 81 78 75 76 77 79 81 82 84 85 87 93 96 96 96 96 96 95 94 94 94 95 95 94 92 91 91 94 97
80 80 80 79 79 80 82 86 91 94 97 99 99 98 96 94 93 94 97 99 102 103 104 104 104 106 106 106 105 104 104 102 101 99 98 96 94 91 88 84 81 78 77 77 78 79 80 81 82 82 84 86 88 89 90 92 93 95 96 97 97 96 95 93 91 89 88 89 92
82 82 81 80 80 82 84 86 91 94 98 99 99 98 97 98 98 100 103 105 107 106 105 104 104 104 105 106 107 106 105 104 102 100 99 97 94 92 88 85 82 80 79 79 79 79 79 80 81 81 82 82 83 84 85 86 88 91 95 98 99 98 96 94 92 91 90 90 91
86 85 84 83 83 84 86 87 90 94 96 96 96 97 98 100 102 105 107 109 110 110 108 106 104 104 106 109 110 110 109 108 106 104 101 99 97 94 91 88 85 82 80 79 78 78 78 80 81 82 83 84 84 84 84 84 85 88 92 96 98 98 98 98 98 97 96 95 94
91 89 87 87 87 88 89 90 92 93 93 91 89 90 93 97 101 105 110 113 114 112 110 107 107 107 110 114 116 115 113 111 109 107 105 102 99 96 92 89 85 81 77 75 75 75 77 80 82 84 85 87 87 87 86 86 86 87 90 92 94 97 100 105 106 106 104 102 99
96 95 93 92 92 93 93 94 95 95 93 90 87 85 86 89 95 103 110 115 116 113 110 108 108 109 113 116 118 116 114 112 110 108 107 105 101 98 93 89 84 78 73 72 71 72 75 79 83 86 88 89 88 87 87 87 88 89 89 90 90 91 93 98 102 106 108 108 104
103 102 101 100 99 99 99 100 99 98 96 93 89 85 83 83 88 97 106 112 113 112 110 109 108 110 113 115 115 113 112 111 111 111 110 108 104 100 95 90 84 78 74 71 70 71 73 77 81 86 89 91 89 88 87 87 88 89 89 88 86 82 77 73 75 81 90 99 103
108 109 109 108 106 106 107 107 106 103 101 100 96 92 87 85 86 91 99 105 107 107 107 108 109 111 113 114 113 112 113 114 117 117 116 112 107 102 95 90 84 80 77 74 72 71 71 73 76 81 87 91 90 88 87 87 87 87 87 86 84 77 69 60 57 59 64 70 76
110 113 114 114 112 112 112 113 112 112 111 110 107 101 96 92 91 95 101 104 105 106 107 108 110 111 113 113 113 113 115 117 119 118 116 112 105 98 91 85 81 78 76 75 73 71 69 69 71 75 80 87 86 85 84 84 85 84 83 82 80 76 68 60 54 53 55 59 62
103 109 113 115 116 117 116 115 115 119 121 121 117 110 105 102 102 105 108 108 108 108 109 109 110 111 111 111 109 108 107 107 108 108 107 104 99 93 89 85 80 75 72 71 71 69 68 66 67 69 74 81 81 80 80 80 80 79 78 76 75 74 70 65 59 56 56 58 62
95 97 100 105 109 112 113 112 113 117 121 123 121 118 115 113 112 113 113 112 110 110 111 111 112 112 110 109 106 103 100 99 100 100 100 99 97 96 94 90 84 77 71 68 67 66 65 64 63 64 68 73 74 74 74 75 74 72 71 70 71 72 72 70 66 62 60 59 61
Height
761 762 762 763 763 764 765 765 766 766 766 766 766 767 768 769 769 770 770 771 772 772 773 773 774 774 774 775 775 776 777 777 778 779 779 780 780 780 780 781 781 781 781 781 781 781 782 782 783 783 784 784 784 785 785 785 785 785 786 787 787 788 788 789 790 790 791 791 792
760 760 761 762 762 763 764 765 765 765 766 766 766 767 767 767 768 769 770 770 771 772 772 773 774 774 775 775 776 776 777 777 778 779 779 780 780 780 780 780 781 781 781 780 780 780 781 781 782 782 783 783 783 784 784 785 785 785 785 785 786 787 787 788 789 789 790 791 791
758 759 760 761 762 762 763 764 764 765 765 765 765 765 766 767 767 768 769 770 771 772 772 773 774 774 775 775 776 777 777 777 778 778 779 779 780 780 780 780 780 780 780 780 780 780 780 780 781 781 782 782 782 783 784 785 785 785 785 785 786 786 787 787 788 789 789 790 791
758 759 759 760 761 762 762 763 764 764 764 764 764 765 765 766 767 768 769 770 771 772 772 773 774 774 775 776 776 777 777 777 778 778 779 779 779 780 780 780 780 780 780 779 779 779 780 780 780 781 781 781 782 782 783 784 785 785 785 786 786 786 787 787 788 788 789 790 790
757 758 758 759 760 762 763 764 764 765 764 764 764 764 765 766 767 768 769 770 771 772 773 773 774 774 775 776 776 777 777 777 777 778 778 779 779 779 780 780 779 779 779 779 779 779 779 779 780 780 781 781 782 782 783 784 785 785 785 786 786 786 787 787 788 789 789 790 790
756 757 757 758 760 761 762 763 764 764 764 764 763 764 765 766 767 768 769 770 771 772 773 773 774 774 775 776 776 777 777 777 777 778 778 779 779 779 779 779 779 779 779 779 779 779 779 779 779 780 780 780 781 782 783 784 784 785 785 786 786 786 787 787 788 789 790 790 790
754 756 757 758 760 761 761 762 763 763 764 763 763 764 764 765 766 767 769 770 771 772 773 773 774 775 775 776 776 777 777 777 777 778 778 779 779 779 779 779 779 779 778 778 778 778 778 778 779 779 780 780 780 782 782 784 784 785 785 786 786 787 787 787 788 789 790 790 791
754 756 757 758 759 760 760 761 762 763 763 763 764 764 764 765 766 767 768 770 771 772 773 774 774 775 776 776 776 777 777 777 778 778 778 779 779 779 779 779 779 778 778 778 778 777 777 778 778 779 779 779 780 781 782 783 784 785 785 786 787 787 787 788 788 789 790 791 792
755 756 757 758 758 759 760 761 762 763 763 763 764 764 765 765 766 767 768 770 771 772 773 774 775 776 776 776 777 777 777 777 778 778 778 778 779 779 779 779 779 778 778 778 777 777 777 777 778 778 779 779 780 781 782 783 784 784 785 786 787 787 788 789 789 790 791 792 793
756 757 757 758 758 759 760 761 762 763 763 764 764 765 765 765 766 767 768 770 771 772 774 775 776 776 777 777 777 777 778 778 778 778 779 779 779 779 779 779 779 778 778 778 777 777 777 777 777 778 778 779 780 781 782 783 783 784 785 786 787 788 789 790 791 791 792 792 793
757 757 757 758 759 760 761 762 763 763 764 764 765 765 766 766 767 768 769 771 772 773 774 775 776 777 777 777 777 778 778 779 779 779 779 779 779 779 779 779 779 778 778 778 778 777 777 777 777 778 778 779 781 782 782 782 782 783 784 786 787 788 789 790 791 792 792 793 793
757 758 758 759 760 761 762 762 763 764 765 765 766 766 767 767 768 769 770 771 772 773 775 776 776 777 777 777 778 778 779 779 779 779 779 780 780 779 779 779 779 779 778 778 778 778 777 777 778 778 779 780 781 782 782 782 782 783 784 786 787 788 789 791 792 792 793 794 794
759 759 759 760 761 762 763 763 764 765 765 766 767 767 767 768 769 770 771 772 773 774 775 776 777 777 777 778 778 779 779 779 779 780 780 780 780 780 780 779 779 779 779 779 778 778 778 778 778 779 780 781 782 782 782 782 783 783 784 786 787 788 790 791 792 793 794 795 795
760 760 761 762 762 763 764 764 765 766 766 767 767 768 769 769 770 771 772 772 774 775 776 776 777 778 778 779 779 779 779 780 780 780 780 780 780 780 780 780 780 779 779 779 779 778 778 778 779 780 780 781 782 782 783 783 783 784 785 786 787 789 790 792 792 793 794 795 796
762 762 762 763 764 764 765 765 766 767 767 768 769 770 770 771 772 772 773 773 775 776 776 777 778 778 779 779 780 780 780 780 780 780 780 780 780 780 780 780 780 780 780 780 779 779 779 779 780 780 781 782 782 782 783 783 784 784 785 786 788 789 791 792 793 794 795 795 796
763 764 764 765 765 766 766 767 767 768 769 769 770 771 772 772 773 773 774 775 776 777 777 778 779 779 780 780 780 780 780 780 780 780 780 780 781 781 781 781 781 781 781 780 780 780 780 780 781 781 782 782 783 783 783 784 784 785 786 787 788 790 791 792 793 795 796 796 796
765 766 766 766 767 767 767 768 768 769 770 771 772 772 773 773 774 774 775 776 777 777 778 779 779 780 780 780 780 780 780 780 780 780 780 781 782 782 782 782 782 782 781 781 781 781 782 782 782 782 783 783 784 784 785 785 785 786 787 788 789 790 791 792 794 795 796 796 797
767 767 767 768 768 768 769 769 770 770 771 772 772 772 773 773 774 775 776 776 777 777 778 779 779 779 780 780 780 781 781 781 780 780 781 781 782 784 784 784 783 783 782 782 782 782 783 784 783 783 784 785 786 786 786 786 786 787 787 788 790 791 792 793 794 796 797 797 797
768 768 769 769 769 770 770 770 771 771 772 772 772 773 773 774 774 775 776 777 777 777 778 778 779 779 780 780 781 782 782 781 781 781 782 782 784 785 785 785 784 784 783 783 783 784 785 785 785 785 785 786 787 788 788 787 787 787 788 789 790 792 792 794 795 796 797 797 798
769 770 770 770 771 771 771 772 772 772 772 773 773 773 773 774 775 775 776 777 777 777 777 778 778 779 780 781 782 782 782 782 782 782 783 784 785 786 787 787 786 785 785 784 785 785 786 787 786 786 787 787 789 790 789 789 788 788 788 789 791 792 793 794 795 796 797 798 798
771 771 771 772 772 772 772 773 773 773 773 773 773 774 774 775 775 776 776 777 777 777 778 778 779 780 781 782 783 783 784 783 783 783 784 785 786 787 788 788 787 787 786 786 787 787 787 788 788 788 788 789 790 791 791 790 789 789 789 790 792 793 794 795 795 796 797 798 799
772 772 772 772 773 773 773 774 774 774 774 774 774 775 775 775 776 776 777 777 777 778 778 779 780 781 782 783 784 785 785 784 784 785 785 786 787 788 789 789 789 788 788 788 788 789 789 789 789 790 790 791 791 792 791 791 790 790 790 791 792 794 795 796 796 797 798 798 799
773 773 773 773 773 774 774 774 775 775 775 775 776 776 776 777 777 777 777 778 778 779 780 780 781 782 783 784 785 786 786 785 786 786 787 787 788 789 789 790 790 789 789 790 790 790 790 790 791 791 791 792 792 792 792 792 791 791 792 792 793 794 796 797 797 798 798 799 799
774 774 774 774 774 775 775 775 775 776 776 777 777 777 777 778 778 778 779 779 780 780 781 782 782 783 784 785 786 787 787 787 787 788 788 789 789 790 790 791 791 791 791 791 791 791 791 791 792 792 792 792 793 793 793 792 792 792 793 794 795 796 797 797 798 799 799 799 799
775 775 775 775 776 776 776 776 776 777 777 777 778 778 778 779 779 780 780 781 781 782 782 783 784 785 786 787 787 787 787 788 788 789 790 790 790 790 791 791 792 792 792 793 793 793 792 792 792 792 793 793 793 794 794 794 794 794 795 795 796 797 797 798 799 799 799 799 799
776 776 776 777 777 777 777 777 777 778 778 778 779 779 780 780 781 781 782 782 782 783 784 785 785 786 787 788 788 788 788 789 790 790 791 791 791 791 791 792 793 793 794 795 795 794 794 793 793 793 793 794 794 794 795 795 795 796 797 797 797 798 798 799 799 800 800 800 800
777 777 777 778 778 778 778 778 779 779 779 780 780 781 781 782 782 782 783 783 784 785 785 786 787 787 788 789 789 789 789 790 791 791 792 792 792 792 792 793 794 795 796 797 796 795 795 794 794 794 794 794 795 795 795 796 797 797 797 798 798 799 799 799 800 800 801 801 801
778 779 779 779 779 779 779 780 780 780 781 781 782 782 782 783 783 784 784 785 785 786 787 787 788 789 789 790 790 790 791 791 792 792 792 793 793 793 793 794 795 797 797 798 797 796 796 796 795 795 795 795 795 796 796 797 797 797 798 798 799 799 800 800 801 801 801 802 802
780 780 780 780 780 781 781 781 781 782 782 782 783 783 784 784 785 785 786 786 787 787 788 788 789 790 791 791 791 791 792 792 793 793 794 794 794 794 795 796 796 797 798 798 798 797 797 797 797 796 796 796 796 797 797 797 798 798 798 799 799 800 800 801 801 802 802 802 802
781 781 781 782 782 782 782 782 783 783 784 784 784 785 785 786 786 787 787 787 788 788 789 790 790 791 792 792 792 792 792 793 794 794 795 795 795 795 796 796 797 798 799 799 798 798 798 798 797 797 797 797 797 797 797 798 798 799 799 799 800 800 801 801 802 802 802 803 803
782 782 782 783 783 783 784 784 784 785 785 786 786 786 787 787 787 788 789 789 789 790 790 791 792 792 793 793 793 793 794 794 795 796 796 796 796 796 797 797 798 799 799 800 800 799 799 799 798 798 798 798 798 798 798 799 799 799 800 800 801 801 802 802 802 802 803 803 804
783 783 784 784 784 785 785 786 786 786 787 787 787 787 788 788 789 790 790 790 791 791 792 792 793 793 794 794 794 795 795 796 796 797 797 797 797 797 797 798 799 800 801 801 801 801 800 800 799 799 799 799 799 799 799 799 800 800 801 801 802 802 802 802 803 803 803 804 804
784 785 785 785 786 786 787 787 787 788 788 788 789 789 790 790 791 791 792 792 792 792 793 793 794 794 795 796 796 796 797 797 798 798 798 798 798 798 798 799 800 802 802 802 802 801 801 800 800 800 800 800 800 800 800 800 801 801 802 802 802 802 803 803 803 803 804 804 805
786 786 786 787 787 787 788 788 789 789 789 789 790 791 791 792 792 792 793 793 794 794 794 794 795 796 796 797 797 797 798 798 799 800 800 799 799 799 800 801 802 803 803 802 802 802 802 801 801 801 801 801 801 801 801 801 802 802 802 803 803 803 803 803 804 804 804 804 805
787 787 787 788 788 789 789 790 790 790 790 791 791 792 792 793 793 794 794 795 795 795 795 796 796 797 797 797 798 798 799 799 800 801 801 801 801 801 802 802 803 803 803 803 802 802 802 802 802 802 802 802 802 802 802 802 802 803 803 803 804 804 804 804 804 804 805 805 805
787 788 788 789 789 790 790 791 791 791 791 792 792 793 793 794 794 795 795 796 796 796 796 797 797 797 798 798 799 799 800 800 801 801 802 802 802 802 802 803 803 803 803 803 803 803 803 803 803 803 803 803 803 803 803 803 803 803 804 804 804 805 805 805 805 805 805 805 805
789 789 789 790 790 791 791 792 792 792 792 793 793 794 794 795 795 796 796 797 797 797 797 797 798 798 799 799 800 801 801 802 802 802 802 803 803 803 803 803 803 803 803 803 803 804 804 804 804 804 804 804 804 804 804 804 804 804 804 805 805 805 805 805 805 806 806 806 806
790 790 790 791 791 792 792 792 793 793 793 794 794 795 795 796 796 797 797 797 797 798 798 798 799 800 800 801 801 802 802 802 803 803 803 803 803 803 803 804 804 804 804 804 804 804 804 804 804 804 804 804 804 804 804 804 804 805 805 805 805 805 806 806 806 806 806 806 806
791 791 791 792 792 793 793 793 794 794 795 795 795 796 796 797 798 798 798 799 799 799 799 800 800 801 801 802 802 802 803 803 803 803 803 804 804 804 804 804 805 805 805 805 805 805 805 805 805 804 804 804 804 804 804 805 805 805 805 805 806 806 806 806 806 806 806 806 806
792 792 792 793 793 794 794 794 795 795 796 796 797 797 798 798 799 799 799 800 800 800 800 801 801 802 802 802 802 802 803 803 803 804 804 804 805 805 805 806 806 805 805 805 805 805 805 805 805 805 805 804 804 804 804 804 804 805 805 805 806 806 806 806 807 807 807 807 807
793 793 794 794 794 795 795 795 796 796 797 797 798 798 799 800 800 800 800 801 801 801 802 802 802 802 802 802 803 803 804 804 805 805 805 806 806 806 807 807 806 806 806 806 806 805 805 805 805 805 805 805 804 804 804 804 804 805 805 806 806 807 807 807 807 807 807 807 807